Wetbulb
49.79 51.84 52.90 55.01 56.59 57.24 57.85 58.40 59.25 59.31 60.38 56.52 53.99 52.19 49.90 50.03 49.38 48.86 47.98 47.02 46.90 46.61 45.04 45.18 44.62 44.04 43.79 42.11 42.16 42.22 41.27 41.01 41.03 39.91 40.05 40.68 42.26 40.96 41.04 41.57 43.14 43.77 45.10
48.75 50.51 51.53 52.70 54.78 55.00 55.63 56.74 56.09 55.67 56.68 55.77 53.66 51.51 49.91 48.81 48.28 47.32 45.20 44.37 43.76 44.01 43.64 41.97 41.83 41.09 41.24 39.76 38.86 38.78 38.62 39.47 39.57 38.08 36.98 35.43 38.21 40.06 40.78 40.88 42.35 41.38 41.23
48.67 47.95 48.32 50.03 51.19 51.56 52.59 53.38 53.44 53.74 53.60 53.29 52.69 51.43 50.11 48.20 46.62 45.41 44.10 42.76 42.26 42.02 41.59 40.59 39.99 39.48 39.26 37.82 37.09 37.14 37.00 35.90 37.92 38.84 36.86 33.00 32.23 35.30 38.55 39.38 40.17 40.00 40.19
48.74 48.96 49.08 48.66 49.33 49.29 50.73 51.96 52.64 52.74 52.35 52.13 51.22 48.77 46.47 44.93 44.90 44.91 43.48 42.05 40.90 40.13 40.47 39.93 38.83 38.18 38.22 36.47 36.70 38.32 36.22 36.42 35.21 37.91 40.59 37.11 35.67 32.52 31.56 37.11 37.66 38.75 39.02
48.79 49.00 49.41 50.14 49.78 48.89 47.59 47.62 48.48 48.72 48.71 48.37 47.85 46.96 44.57 44.14 43.59 42.09 40.67 40.08 39.05 39.05 39.27 38.50 37.38 36.87 37.00 35.78 35.55 35.24 34.78 35.21 35.72 35.46 36.25 34.81 34.63 34.65 31.67 29.20 31.63 36.52 36.99
48.45 49.32 50.03 50.22 48.32 47.31 46.60 46.30 47.03 45.79 45.98 46.02 45.04 44.04 42.19 40.71 39.39 38.47 37.91 37.89 37.79 37.59 37.30 37.73 35.90 35.51 35.55 35.15 34.82 34.92 34.18 34.31 35.11 34.57 35.14 34.14 32.53 32.74 31.33 30.11 31.22 31.63 33.95
48.45 48.72 48.54 48.15 46.99 45.96 45.59 45.82 45.05 43.41 43.18 42.99 41.92 40.65 38.84 37.87 37.15 36.69 35.84 35.61 35.55 35.15 34.70 34.98 34.13 34.04 34.44 34.81 34.40 33.98 33.59 33.93 32.57 32.47 32.40 33.39 33.81 33.75 33.42 32.25 30.79 30.02 32.93
48.28 48.37 48.38 47.63 46.51 46.14 44.72 43.65 42.76 41.45 40.96 40.19 39.33 38.70 38.27 37.34 36.50 36.01 35.19 34.63 34.32 34.18 33.98 33.72 33.63 33.56 34.02 33.71 33.24 32.97 32.91 33.06 31.33 30.44 30.59 31.88 32.66 33.91 33.82 32.21 30.65 28.20 29.33
47.48 47.88 48.25 47.74 46.17 44.45 43.43 42.66 41.58 40.49 39.89 38.60 37.31 36.22 36.20 35.93 35.00 34.43 34.38 33.91 33.66 36.33 33.43 33.10 32.83 32.79 32.94 32.84 32.24 31.74 31.05 30.90 30.58 30.15 30.23 30.36 32.60 33.21 33.44 33.19 32.53 29.70 25.41
47.09 47.74 48.07 47.43 45.67 44.78 42.92 41.68 40.91 39.80 38.70 37.26 36.12 35.70 34.98 34.89 34.24 33.63 32.86 32.96 32.90 33.01 32.74 32.38 32.13 32.05 32.15 31.89 31.00 30.52 31.17 30.24 30.03 31.59 29.44 30.46 32.00 32.30 32.78 32.40 31.96 31.47 29.05
46.74 47.51 47.81 47.23 45.41 44.02 42.35 40.36 39.45 38.63 37.39 36.43 35.34 34.76 34.57 34.31 33.56 32.90 32.47 32.21 32.32 32.10 32.05 31.95 31.72 31.68 31.61 31.45 30.36 30.07 30.68 29.72 28.80 29.03 30.26 30.32 31.22 31.06 31.48 31.76 31.66 30.93 30.01
47.10 47.36 47.16 45.57 44.67 42.82 40.77 39.49 38.63 37.59 36.44 35.94 35.21 34.56 34.25 33.23 32.21 31.91 32.18 32.50 31.51 31.78 31.56 31.86 32.11 31.66 32.02 31.46 30.06 29.17 29.13 28.23 28.21 28.87 29.18 29.61 31.85 29.90 30.52 30.68 30.22 29.89 30.21
46.76 46.58 45.30 44.46 43.76 41.73 40.27 38.74 37.54 36.24 35.97 35.55 34.37 33.55 32.70 32.06 31.25 31.29 32.14 32.28 31.63 31.24 31.81 31.76 31.58 31.64 32.02 30.95 29.94 29.53 28.51 28.73 28.59 28.75 28.99 29.36 29.34 28.64 29.51 29.84 29.69 30.18 31.27
46.85 45.95 44.68 43.83 43.13 41.78 40.28 37.96 36.24 35.84 35.23 34.60 33.39 32.27 31.73 31.44 31.28 31.67 31.81 31.81 31.59 31.08 31.10 31.57 31.38 31.32 30.76 30.73 30.57 29.62 29.02 28.33 29.00 29.52 29.53 29.36 29.18 28.99 29.53 30.10 30.06 31.34 29.83
45.90 45.46 43.98 43.35 42.23 40.47 38.36 36.90 35.48 34.84 34.62 33.57 32.76 32.04 32.03 32.08 31.73 31.73 31.31 31.43 31.18 31.34 31.09 30.50 29.98 29.69 30.48 32.62 31.99 31.70 29.93 27.88 27.54 28.30 29.44 30.20 31.66 34.19 33.54 31.60 29.76 29.30 28.54
45.77 45.51 44.73 43.12 41.24 39.41 37.52 36.40 34.56 33.96 33.99 32.59 32.13 32.64 32.09 31.79 31.24 31.01 30.54 30.13 30.00 29.39 29.03 28.41 28.19 27.69 31.35 35.21 36.20 34.94 30.76 28.54 27.73 27.51 29.18 29.67 31.93 31.72 34.72 34.51 34.86 33.87 30.23
45.31 45.62 44.74 43.21 41.20 38.89 37.18 34.56 33.59 33.17 32.23 31.86 31.88 32.43 33.47 31.41 30.89 30.38 29.59 28.56 27.80 27.06 26.72 26.81 26.91 26.36 26.49 34.90 35.82 35.83 31.27 28.79 27.37 27.96 28.33 28.93 30.85 31.39 29.46 32.56 34.30 33.71 35.07
46.11 45.97 44.21 42.19 39.85 37.52 35.62 33.81 33.13 32.01 31.71 31.48 32.54 33.24 31.68 30.39 29.59 28.52 27.44 26.37 26.46 25.92 25.59 25.88 26.13 25.56 28.16 34.37 34.82 35.16 30.38 27.96 27.42 27.82 28.28 28.18 28.59 29.85 30.92 29.90 29.82 31.00 30.95
45.92 44.40 42.51 39.34 37.43 35.11 34.41 33.04 31.54 31.49 31.20 31.03 30.53 30.61 30.22 28.80 28.11 26.35 25.55 25.79 25.50 25.09 24.84 25.99 25.37 24.36 25.17 33.00 34.04 33.14 29.22 28.59 28.03 29.04 28.79 29.91 29.14 32.10 33.40 30.07 29.94 27.77 26.98
41.64 39.00 37.80 35.81 34.29 33.41 33.27 31.82 29.82 29.91 30.20 30.08 30.08 29.75 29.35 27.88 26.15 25.47 25.29 25.71 25.07 25.93 26.53 26.08 25.10 27.74 24.32 31.08 33.28 32.36 29.16 27.47 27.44 28.54 29.06 31.70 30.38 32.64 34.25 30.01 27.24 23.51 23.71
37.65 37.68 36.05 34.03 33.01 32.44 32.04 30.11 29.09 28.60 29.63 30.01 29.58 29.19 28.19 26.65 26.28 25.62 25.06 24.68 24.42 24.31 22.96 22.70 22.91 23.45 25.46 27.06 32.69 32.94 29.31 27.97 28.53 27.38 26.98 27.44 31.78 34.56 32.32 31.66 25.19 25.12 28.57
35.75 35.35 33.74 32.94 32.15 31.28 30.74 28.04 26.89 28.27 29.05 29.08 28.73 27.80 26.41 27.85 28.55 24.93 24.46 24.02 23.31 22.09 21.37 20.99 22.51 23.74 24.71 30.21 31.29 32.78 32.86 32.61 28.50 27.05 26.83 27.79 33.00 30.97 30.10 28.17 29.74 30.30 28.89
34.18 34.36 32.56 30.52 29.41 29.52 28.99 26.99 27.01 28.14 27.89 27.26 25.94 25.85 26.74 26.38 25.81 24.09 23.64 22.76 22.45 21.36 22.56 22.86 23.86 24.55 26.04 25.34 31.12 32.25 32.91 32.41 29.09 28.07 30.26 30.99 29.65 28.58 26.46 27.82 28.68 28.22 22.79
32.75 32.12 30.56 28.76 27.05 27.76 27.97 27.00 27.43 28.03 26.68 24.90 25.02 25.24 24.57 26.48 24.40 24.55 23.96 21.69 21.09 21.18 24.10 24.55 24.29 24.10 25.10 25.64 26.84 28.68 28.13 30.21 29.33 29.98 26.45 26.84 26.81 26.97 26.01 24.57 24.38 23.56 23.71
32.68 31.61 29.91 28.16 26.34 26.29 26.35 26.68 27.12 26.47 24.90 24.27 23.77 23.42 24.36 23.23 22.86 23.34 21.92 22.02 22.96 25.97 25.70 25.17 25.19 23.99 24.17 26.29 30.87 30.03 28.00 28.43 28.99 27.74 23.30 21.81 21.55 20.73 21.25 22.11 22.58 23.02 23.19
32.52 30.64 28.78 27.29 25.91 25.91 25.80 26.15 26.61 25.70 24.17 23.18 23.64 23.26 23.45 22.25 22.54 21.00 22.06 28.66 30.14 31.00 31.00 30.89 29.11 27.58 30.35 31.32 31.17 31.04 31.11 30.68 29.51 23.74 20.38 19.84 20.13 19.86 20.32 20.47 21.01 22.00 22.71
MSLP
1007.66 1007.64 1007.88 1008.05 1008.45 1008.83 1008.81 1009.03 1009.08 1009.13 1009.26 1010.08 1010.95 1011.59 1012.47 1012.97 1013.44 1013.86 1014.15 1014.37 1014.53 1014.65 1014.84 1015.05 1015.07 1015.02 1015.16 1015.25 1015.12 1014.94 1014.87 1014.51 1014.20 1013.84 1013.24 1012.40 1011.65 1011.76 1011.69 1011.45 1011.23 1010.86 1010.59
1007.88 1008.00 1008.19 1008.53 1009.01 1009.32 1009.37 1009.43 1009.58 1009.66 1009.81 1010.50 1011.35 1012.04 1012.86 1013.57 1014.06 1014.64 1014.85 1014.99 1015.02 1015.11 1015.23 1015.50 1015.58 1015.58 1015.60 1015.59 1015.57 1015.53 1015.49 1015.14 1014.86 1014.96 1014.11 1013.44 1012.57 1011.89 1012.11 1011.75 1011.34 1011.09 1010.88
1007.50 1008.09 1008.58 1008.94 1009.55 1009.91 1009.92 1009.98 1010.16 1010.09 1010.49 1011.03 1011.79 1012.65 1013.30 1014.07 1014.75 1015.31 1015.52 1015.60 1015.44 1015.53 1015.63 1015.74 1015.85 1015.91 1015.91 1016.03 1015.95 1015.91 1015.96 1015.88 1015.32 1015.13 1015.13 1014.78 1014.36 1013.37 1012.04 1011.94 1011.55 1011.37 1011.21
1007.51 1008.08 1008.39 1009.08 1009.73 1010.30 1010.38 1010.59 1010.45 1010.69 1011.08 1011.51 1012.33 1013.04 1013.77 1014.68 1015.18 1015.56 1015.85 1015.99 1015.87 1015.91 1015.91 1015.95 1016.09 1016.24 1016.25 1016.26 1016.21 1016.10 1016.11 1015.98 1015.87 1015.33 1015.17 1015.54 1015.49 1014.80 1012.94 1012.30 1012.14 1011.65 1011.33
1006.81 1007.76 1008.19 1008.97 1009.90 1010.44 1010.88 1011.01 1011.08 1011.44 1011.68 1012.16 1012.76 1013.52 1014.35 1014.96 1015.35 1015.81 1016.16 1016.39 1016.42 1016.32 1016.27 1016.30 1016.36 1016.45 1016.43 1016.41 1016.35 1016.27 1016.18 1016.03 1016.00 1015.94 1015.55 1015.25 1014.99 1014.69 1014.39 1012.56 1012.17 1011.87 1011.37
1007.09 1007.90 1008.47 1009.16 1010.24 1010.80 1011.15 1011.54 1011.80 1012.30 1012.42 1012.79 1013.42 1013.97 1014.71 1015.32 1015.79 1016.30 1016.65 1016.76 1016.78 1016.81 1016.69 1016.52 1016.55 1016.52 1016.52 1016.47 1016.39 1016.30 1016.14 1016.04 1015.98 1015.90 1015.76 1015.63 1015.36 1014.74 1014.19 1013.01 1012.03 1011.53 1011.16
1006.97 1007.84 1008.60 1009.48 1010.45 1011.23 1011.51 1011.96 1012.27 1012.96 1013.18 1013.52 1014.16 1014.50 1015.07 1015.53 1016.16 1016.63 1016.92 1017.09 1017.08 1017.01 1016.95 1016.87 1016.82 1016.77 1016.63 1016.45 1016.36 1016.27 1016.13 1015.99 1015.98 1015.87 1015.62 1015.27 1015.00 1014.65 1014.18 1013.45 1012.08 1011.10 1010.67
1006.86 1007.75 1008.59 1009.54 1010.62 1011.43 1011.73 1012.24 1012.79 1013.40 1013.78 1014.16 1014.69 1014.94 1015.30 1015.81 1016.38 1016.74 1016.93 1017.12 1017.15 1017.10 1017.09 1017.05 1016.95 1016.85 1016.60 1016.42 1016.35 1016.28 1016.17 1015.97 1015.81 1015.61 1015.33 1015.09 1014.75 1014.37 1013.96 1013.41 1012.65 1010.65 1010.11
1006.80 1007.67 1008.66 1009.64 1010.64 1011.52 1012.01 1012.52 1013.10 1013.79 1014.21 1014.69 1015.07 1015.44 1015.78 1016.16 1016.65 1016.95 1016.92 1017.13 1017.16 1017.15 1017.14 1017.09 1017.05 1016.90 1016.72 1016.57 1016.48 1016.38 1016.19 1015.97 1015.67 1015.41 1015.14 1014.96 1014.47 1014.06 1013.58 1013.19 1012.83 1012.09 1009.96
1006.83 1007.76 1008.72 1009.71 1010.74 1011.58 1012.19 1012.75 1013.39 1013.97 1014.53 1015.01 1015.39 1015.78 1016.09 1016.41 1016.79 1016.99 1017.07 1017.22 1017.27 1017.25 1017.22 1017.19 1017.10 1016.94 1016.82 1016.68 1016.50 1016.28 1015.96 1015.73 1015.47 1015.16 1015.08 1014.72 1014.29 1013.80 1013.25 1012.74 1012.42 1012.00 1011.15
1006.50 1007.61 1008.74 1009.73 1010.85 1011.70 1012.32 1012.98 1013.68 1014.21 1014.82 1015.29 1015.71 1016.05 1016.31 1016.63 1016.95 1017.03 1017.22 1017.26 1017.29 1017.34 1017.31 1017.23 1017.07 1016.95 1016.79 1016.52 1016.29 1016.04 1015.65 1015.50 1015.35 1015.12 1014.82 1014.52 1014.09 1013.51 1012.94 1012.39 1011.84 1011.26 1010.87
1006.36 1007.56 1008.63 1009.76 1010.97 1011.80 1012.51 1013.24 1013.82 1014.42 1015.04 1015.52 1015.90 1016.28 1016.53 1016.85 1016.99 1017.22 1017.26 1017.30 1017.36 1017.38 1017.33 1017.21 1017.06 1016.83 1016.60 1016.35 1016.07 1015.78 1015.38 1015.27 1015.10 1014.84 1014.65 1014.27 1013.68 1013.16 1012.55 1011.85 1011.16 1010.59 1009.96
1006.49 1007.62 1008.75 1009.84 1010.92 1011.88 1012.70 1013.39 1013.99 1014.67 1015.25 1015.65 1016.14 1016.58 1016.86 1017.05 1017.24 1017.32 1017.37 1017.36 1017.40 1017.34 1017.26 1017.16 1016.96 1016.70 1016.40 1016.01 1015.59 1015.27 1015.13 1014.96 1014.72 1014.52 1014.30 1013.87 1013.38 1012.70 1011.96 1011.24 1010.47 1009.75 1009.05
1006.18 1007.44 1008.75 1009.82 1010.79 1011.78 1012.64 1013.48 1014.26 1014.82 1015.41 1015.91 1016.45 1016.82 1017.11 1017.21 1017.31 1017.38 1017.41 1017.40 1017.37 1017.32 1017.21 1016.99 1016.72 1016.41 1016.02 1015.61 1015.19 1014.98 1014.73 1014.46 1014.20 1013.99 1013.80 1013.45 1012.89 1012.11 1011.23 1010.39 1009.68 1009.04 1008.40
1006.20 1007.28 1008.55 1009.72 1010.75 1011.78 1012.76 1013.62 1014.37 1015.00 1015.54 1016.16 1016.64 1016.99 1017.13 1017.23 1017.36 1017.38 1017.37 1017.38 1017.35 1017.27 1017.08 1016.86 1016.56 1016.18 1015.80 1015.34 1014.96 1014.53 1014.15 1013.97 1013.72 1013.50 1013.21 1012.77 1012.20 1011.43 1010.62 1009.72 1009.05 1008.47 1007.61
1006.32 1007.46 1008.54 1009.60 1010.64 1011.65 1012.72 1013.67 1014.51 1015.17 1015.70 1016.33 1016.77 1017.01 1017.19 1017.30 1017.42 1017.46 1017.48 1017.43 1017.32 1017.21 1017.03 1016.81 1016.48 1016.10 1015.78 1015.30 1014.63 1014.07 1013.66 1013.40 1013.20 1012.89 1012.38 1011.97 1011.42 1010.72 1009.87 1009.31 1008.51 1007.61 1006.66
1005.95 1007.08 1008.16 1009.28 1010.43 1011.57 1012.60 1013.79 1014.59 1015.28 1015.93 1016.46 1016.86 1017.06 1017.15 1017.39 1017.49 1017.54 1017.59 1017.65 1017.49 1017.28 1017.08 1016.75 1016.42 1016.14 1015.59 1014.90 1014.25 1013.70 1013.23 1012.89 1012.65 1012.25 1011.72 1011.09 1010.56 1010.03 1009.42 1008.41 1007.48 1006.87 1006.24
1005.80 1007.03 1008.22 1009.50 1010.67 1011.73 1012.92 1013.90 1014.73 1015.48 1016.12 1016.63 1016.92 1017.15 1017.32 1017.52 1017.60 1017.69 1017.80 1017.78 1017.50 1017.31 1017.04 1016.68 1016.34 1015.91 1015.34 1014.73 1014.07 1013.41 1012.87 1012.61 1012.28 1011.86 1011.35 1010.72 1010.03 1009.55 1008.45 1007.38 1006.49 1005.90 1005.45
1006.05 1007.11 1008.35 1009.65 1011.02 1012.20 1013.28 1014.21 1015.14 1015.81 1016.39 1016.82 1017.08 1017.25 1017.34 1017.60 1017.79 1017.85 1017.83 1017.66 1017.45 1017.15 1016.85 1016.46 1016.12 1015.82 1015.33 1014.67 1013.95 1013.28 1012.85 1012.32 1011.81 1011.33 1010.85 1010.40 1009.60 1008.71 1007.52 1006.52 1005.67 1005.30 1004.75
1007.02 1008.15 1009.38 1010.57 1011.66 1012.96 1013.66 1014.60 1015.62 1016.18 1016.66 1016.95 1017.16 1017.31 1017.47 1017.68 1017.84 1017.83 1017.77 1017.48 1017.20 1016.97 1016.61 1016.30 1016.01 1015.65 1015.22 1014.67 1014.00 1013.37 1012.76 1012.01 1011.38 1010.93 1010.43 1009.80 1008.93 1007.65 1006.84 1005.99 1005.35 1004.78 1003.90
1008.55 1009.49 1010.52 1011.57 1012.60 1013.43 1014.16 1015.20 1015.94 1016.54 1016.82 1017.04 1017.25 1017.46 1017.61 1017.77 1017.70 1017.67 1017.49 1017.30 1017.09 1016.84 1016.67 1016.33 1015.80 1015.41 1014.99 1014.41 1013.73 1013.06 1012.33 1011.83 1011.09 1010.46 1009.62 1009.04 1008.08 1007.12 1006.23 1005.51 1005.19 1004.33 1003.09
1010.05 1010.71 1011.62 1012.69 1013.43 1014.00 1014.71 1015.78 1016.41 1016.73 1016.97 1017.23 1017.47 1017.65 1017.73 1017.76 1017.65 1017.61 1017.34 1017.14 1017.09 1016.81 1016.31 1015.85 1015.46 1015.02 1014.54 1014.04 1013.30 1012.52 1011.84 1011.28 1010.70 1009.92 1009.23 1008.38 1007.40 1006.61 1006.05 1005.48 1004.69 1003.68 1002.95
1010.93 1011.68 1012.42 1013.42 1014.20 1014.68 1015.17 1016.12 1016.70 1016.92 1017.23 1017.50 1017.70 1017.81 1017.83 1017.78 1017.63 1017.58 1017.51 1017.35 1016.96 1016.50 1015.98 1015.55 1015.00 1014.52 1013.98 1013.45 1012.74 1011.94 1011.15 1010.61 1009.99 1009.74 1008.77 1008.07 1007.31 1006.71 1006.06 1005.39 1004.47 1003.68 1003.17
1011.76 1012.51 1013.29 1014.20 1014.99 1015.35 1015.82 1016.38 1016.86 1017.08 1017.46 1017.74 1017.89 1018.00 1017.95 1017.76 1017.66 1017.61 1017.46 1017.21 1016.76 1016.29 1015.78 1015.29 1014.79 1014.14 1013.51 1012.91 1012.13 1011.24 1010.67 1010.19 1009.90 1009.20 1008.64 1007.99 1007.42 1006.86 1006.07 1005.13 1004.30 1003.67 1002.98
1012.52 1013.20 1013.94 1014.73 1015.48 1015.87 1016.36 1016.72 1016.99 1017.30 1017.73 1017.99 1018.07 1017.98 1017.90 1017.92 1017.85 1017.62 1017.40 1017.08 1016.58 1016.13 1015.55 1015.12 1014.62 1013.90 1013.02 1012.39 1011.68 1011.04 1010.39 1009.94 1009.43 1008.60 1008.45 1007.94 1007.33 1006.56 1005.69 1004.82 1004.06 1003.30 1002.49
1013.05 1013.79 1014.50 1015.16 1015.82 1016.25 1016.70 1017.05 1017.24 1017.59 1017.92 1018.04 1017.98 1017.97 1018.00 1017.97 1017.82 1017.60 1017.08 1016.74 1016.35 1015.95 1015.53 1015.02 1014.42 1013.75 1013.14 1012.35 1011.61 1010.95 1010.43 1009.82 1009.34 1008.87 1008.64 1008.05 1007.34 1006.51 1005.58 1004.69 1003.76 1003.00 1002.16
Wind_Speed
7 8 6 7 7 5 7 6 7 6 9 8 7 7 6 6 7 7 9 9 7 8 7 5 5 5 5 5 6 4 5 3 5 3 5 4 4 3 5 8 5 9 7
8 8 8 7 7 6 6 7 7 7 9 7 5 5 5 6 6 5 6 7 7 7 6 6 5 6 4 6 6 5 4 3 5 3 3 5 5 5 13 4 8 6 7
15 9 8 9 8 7 7 8 7 11 11 13 10 8 7 5 4 4 4 4 7 7 6 6 5 5 5 4 3 4 6 3 3 6 2 5 3 11 3 10 4 9 10
10 10 13 10 9 6 7 7 8 10 9 9 10 8 5 5 2 3 3 4 6 6 6 6 6 5 4 5 4 4 3 3 4 3 3 2 4 4 7 3 11 8 9
18 16 14 13 9 8 7 7 9 8 8 8 8 8 7 4 3 4 6 6 5 6 6 6 6 5 4 4 4 4 5 2 2 2 3 3 2 5 4 11 6 9 8
14 13 13 13 9 7 8 8 11 8 9 9 8 9 9 7 6 5 5 4 3 4 5 5 5 4 4 4 3 3 5 4 3 3 3 2 4 7 7 13 13 13 9
17 17 16 14 9 8 8 8 10 9 9 11 9 9 9 9 8 6 4 4 2 2 4 4 5 3 4 5 4 4 5 4 3 4 4 3 3 3 7 9 13 13 11
16 16 15 13 10 9 8 9 10 9 8 9 8 7 8 5 5 5 3 3 2 2 3 4 4 5 5 5 5 3 4 5 5 7 6 4 4 6 7 9 11 15 14
17 17 15 13 10 8 9 10 10 8 8 8 7 7 7 7 6 5 4 3 3 2 4 4 5 6 6 6 6 4 5 5 4 6 5 4 7 6 6 7 8 10 16
16 15 14 13 8 9 9 9 9 9 8 8 6 6 7 6 6 5 5 4 4 4 5 5 5 6 6 6 5 4 5 5 4 4 6 7 8 9 8 7 5 8 11
16 15 14 12 10 10 10 9 8 9 8 7 6 7 6 6 5 5 4 4 4 5 5 5 6 6 6 6 5 6 6 6 5 5 8 10 11 9 9 9 9 9 7
15 15 15 13 13 11 10 10 8 8 7 7 7 6 6 6 6 5 4 4 4 4 5 5 5 6 6 6 6 6 6 5 6 6 6 12 10 13 12 9 12 9 11
15 15 14 14 12 11 10 9 8 8 7 7 7 6 6 6 4 4 4 4 4 5 5 5 6 6 7 6 6 6 5 6 6 5 7 12 13 13 12 12 11 11 11
18 16 14 13 12 11 10 10 8 7 7 7 7 6 5 4 3 3 3 4 4 5 6 6 6 6 7 7 7 6 6 6 5 5 6 11 12 14 14 13 13 12 12
16 16 15 13 11 11 10 10 8 7 7 7 6 5 4 4 3 3 3 4 5 5 6 6 6 7 7 7 12 11 7 6 6 6 8 10 15 26 22 13 15 16 14
14 14 15 14 13 12 12 11 9 7 7 7 6 5 4 3 3 3 4 5 6 6 6 6 6 7 7 19 22 19 10 6 6 8 11 10 17 17 26 27 31 26 17
16 17 16 14 13 13 13 12 9 7 7 6 5 5 3 2 3 4 5 6 6 6 6 7 6 7 7 20 23 24 11 8 6 9 10 11 10 18 14 23 28 24 28
16 15 12 12 12 12 12 11 9 8 7 6 5 4 3 2 3 4 5 5 4 5 6 6 7 7 8 21 23 25 10 7 7 8 10 11 14 14 22 20 18 16 11
11 10 11 13 13 13 12 11 8 7 6 5 5 4 3 2 3 4 6 5 4 5 4 5 7 7 8 19 23 20 10 12 11 10 9 14 16 24 32 21 16 14 11
13 14 14 14 15 11 11 11 8 7 6 5 4 3 2 2 4 4 6 4 3 5 5 7 6 10 7 15 22 19 9 11 10 11 12 20 23 32 31 20 16 14 16
15 14 13 13 12 10 10 9 7 6 5 5 4 2 2 3 4 5 3 4 5 6 6 6 6 6 7 9 21 22 11 10 10 10 11 11 29 29 31 29 14 18 21
12 13 13 11 8 8 10 8 7 6 5 4 2 2 3 3 3 4 5 6 6 6 6 6 5 4 6 13 17 23 23 21 12 12 11 14 26 30 29 23 28 29 24
11 10 12 10 7 7 8 8 6 6 5 4 2 2 3 4 4 5 6 5 5 5 7 6 7 7 6 6 18 22 23 22 16 11 20 25 27 27 18 24 27 24 11
10 10 11 9 7 6 7 7 6 6 5 3 2 3 3 5 5 4 4 4 4 5 6 7 8 8 8 7 8 9 10 16 12 16 10 18 21 21 20 16 14 10 10
8 8 9 8 7 7 7 6 6 6 4 2 1 3 3 4 5 4 4 4 4 7 9 8 7 9 10 10 22 20 14 13 17 19 10 10 11 11 11 11 11 11 11
7 7 7 8 7 7 6 6 5 5 3 2 3 3 3 4 3 4 5 9 14 17 18 19 15 10 19 25 26 27 27 27 27 11 10 11 11 11 12 12 13 11 15
Wind_Direction
165 130 120 104 101 97 120 128 118 117 106 102 101 86 86 85 75 71 68 61 59 55 52 48 39 29 47 31 18 353 350 331 347 357 316 302 296 44 347 340 324 342 336
150 141 128 100 80 90 83 82 83 83 93 99 97 102 105 80 85 81 71 70 64 56 64 53 41 39 44 30 24 29 351 323 10 348 300 335 323 354 326 325 319 341 340
159 149 132 113 101 91 90 94 97 100 101 106 104 98 82 64 68 66 76 71 71 60 60 53 52 45 51 35 15 24 29 338 321 359 52 348 318 325 324 320 327 332 334
143 140 130 116 111 101 94 94 92 99 101 111 113 117 118 121 122 123 107 83 71 60 52 47 45 47 37 29 360 21 27 11 341 344 31 186 246 309 316 345 316 306 321
153 146 131 124 114 104 95 86 84 83 93 99 108 110 102 103 100 90 91 85 61 52 46 45 42 39 30 15 19 13 4 355 325 327 316 311 280 240 264 300 314 300 307
141 130 120 116 111 106 96 89 91 81 85 93 94 105 110 105 89 75 75 67 68 45 36 35 33 27 21 5 360 360 353 340 315 309 301 279 300 314 313 306 308 303 302
141 136 132 128 124 124 116 107 101 90 88 92 94 100 100 95 97 94 91 72 42 31 22 29 18 4 353 358 358 351 346 325 330 318 294 284 275 280 298 300 302 299 305
144 140 138 132 134 136 122 112 109 106 97 95 94 91 95 94 93 99 95 84 71 73 24 22 17 360 355 355 356 347 336 337 326 313 310 301 302 303 294 295 302 305 303
147 144 139 141 141 137 132 127 118 113 106 105 100 95 97 99 104 97 87 81 44 38 27 15 3 354 356 355 353 342 327 319 303 304 306 311 314 298 287 290 289 292 307
145 144 143 143 136 137 129 119 120 122 120 113 108 107 109 104 102 89 77 59 38 26 17 0 359 352 347 344 342 324 307 309 308 323 330 322 315 306 299 290 287 283 286
150 146 145 141 134 133 131 127 124 122 115 112 112 108 101 96 93 83 69 55 38 17 6 351 346 339 331 325 320 306 296 312 332 318 323 316 313 304 308 299 291 282 277
146 143 143 139 142 139 135 136 127 121 125 125 115 106 99 92 81 73 53 42 23 2 349 341 330 319 314 304 300 298 309 319 309 309 316 315 312 309 302 295 292 285 285
143 143 143 146 146 142 140 135 129 129 130 120 113 103 96 87 79 63 42 25 5 343 334 329 318 309 304 298 296 292 305 290 284 290 308 316 311 303 299 294 293 291 292
153 149 149 150 149 147 144 136 130 127 124 116 113 109 104 100 86 63 29 7 345 333 324 314 307 302 305 308 301 302 287 278 292 290 302 305 300 297 301 303 301 307 301
156 156 153 152 150 144 135 132 130 125 123 114 113 119 116 99 77 39 5 339 332 322 314 316 313 312 325 324 324 315 300 286 284 276 293 298 295 310 308 310 314 304 299
154 152 154 154 153 147 141 137 133 128 118 121 128 126 110 87 48 5 346 338 331 323 320 320 316 324 321 319 324 325 316 299 281 287 299 290 299 299 305 308 305 301 303
157 160 160 157 151 144 139 138 133 123 120 125 130 126 106 71 17 357 351 334 322 321 316 317 322 307 297 324 326 324 318 301 279 291 294 298 300 307 300 298 302 304 294
154 152 146 140 134 128 125 123 122 121 124 132 135 119 98 44 3 351 332 320 307 310 311 311 299 301 311 323 325 326 321 306 289 287 295 299 309 307 305 306 305 295 297
135 126 126 124 121 123 126 122 116 118 124 132 126 111 81 18 338 325 316 299 291 309 300 294 309 309 305 328 332 332 331 320 315 310 314 313 310 309 311 314 312 317 307
104 109 109 111 113 121 121 118 122 125 130 131 124 95 59 344 316 308 300 279 303 297 310 313 305 317 321 329 333 334 320 318 315 319 307 309 314 313 317 322 322 319 312
101 101 103 111 120 119 118 117 121 126 133 119 102 69 4 316 291 303 290 312 317 315 301 292 299 302 308 317 329 330 325 317 317 310 316 309 312 317 327 329 332 308 320
97 102 107 109 107 109 112 118 123 140 120 110 95 5 331 308 321 333 327 328 315 305 302 303 299 281 279 301 319 324 323 321 318 318 313 308 322 330 329 330 318 326 330
107 105 110 104 97 110 118 121 145 126 113 94 55 347 326 330 351 348 326 319 315 312 321 314 313 313 306 287 303 313 315 332 329 321 316 330 328 329 328 320 326 325 315
115 116 114 111 105 105 109 120 128 116 103 95 18 337 357 359 351 330 311 315 314 320 321 319 322 315 314 313 308 319 329 330 333 317 326 328 328 325 319 319 317 316 312
122 125 127 125 122 114 112 119 116 111 107 96 11 11 7 348 318 317 308 316 300 324 327 321 320 321 325 321 330 335 333 333 329 337 333 325 324 320 318 319 319 317 315
124 119 122 124 132 123 124 121 117 117 125 69 18 345 328 316 323 314 317 335 331 327 326 327 328 325 322 327 333 330 335 338 335 339 325 322 319 318 319 320 318 318 320